Location: Aufkirchen
(47.9603°N, 11.3653°E)
Time: 09:36:26
(UTC+01:00)

Tiros 1 - Pass Details

Date: 01 December 2020
Orbit: 630 x 663 km, 48.4° (Epoch: 21 January)

Event Time Altitude Azimuth Distance (km) Brightness Sun altitude
Rises 17:02:38 0° 266° (W) 2,992 12.1 -6.5°
Reaches altitude 10° 17:05:00 10° 267° (W) 2,078 11.1 -6.9°
Maximum altitude 17:09:49 85° 357° (N) 666 7.2 -7.6°
Drops below altitude 10° 17:14:36 10° 86° (E) 2,065 9.1 -8.3°
Enters shadow 17:14:49 - 86° (E) 2,150 9.2 -8.4°
Sets 17:16:56 0° 87° (E) 2,972 - -8.7°
